Regional Weather Roundup
Issued by NWS

Home | Current Version | Previous Version | Graphics & Text | Print | Product List | Glossary On
Versions: 1 2 3 4 5 6 7 8 9 10 11 12 13 14 15 16 17 18 19 20 21 22 23 24 25 26 27 28 29 30 31 32 33 34 35 36 37 38 39 40 41 42 43 44 45 46 47 48 49 50
000
ASUS43 KLOT 300503
RWRIL

ILLINOIS REGIONAL WEATHER ROUNDUP
NATIONAL WEATHER SERVICE CHICAGO/ROMEOVILLE IL
1200 AM CDT SAT APR 30 2016

NOTE: "FAIR" INDICATES FEW OR NO CLOUDS BELOW 12,000 FEET WITH NO
SIGNIFICANT WEATHER AND/OR OBSTRUCTIONS TO VISIBILITY.

* THESE STATIONS ARE NOT UNDER NWS QUALITY CONTROL. THEY ALSO MAY NOT
  REPORT WEATHER SUCH AS PRECIPITATION OR FOG.

ILZ001-002-007-009-015-016-024-300600-
NORTHWEST ILLINOIS

CITY           SKY/WX    TMP DP  RH WIND       PRES   REMARKS
MOLINE         CLOUDY    48  41  76 NE10      30.05S
STERLING*      CLOUDY    46  43  87 E10       30.08S
$$

ILZ003-004-008-010-011-017-018-300600-
NORTH CENTRAL ILLINOIS

CITY           SKY/WX    TMP DP  RH WIND       PRES   REMARKS
ROCKFORD       CLOUDY    43  39  86 E5        30.11F
FREEPORT*      CLOUDY    39  37  94 E3        30.11R
DE KALB*       CLOUDY    43  40  86 E8        30.10R
$$

ILZ005-006-012>014-019>023-300600-
NORTHEAST ILLINOIS

CITY           SKY/WX    TMP DP  RH WIND       PRES   REMARKS
CHICAGO-OHARE  CLOUDY    43  37  79 NE8       30.10F
CHICAGO-MIDWAY CLOUDY    45  37  73 NE10      30.10F
AURORA         CLOUDY    45  39  79 NE9       30.10F HAZE
LANSING*       CLOUDY    43  39  85 NE5       30.10F
WAUKEGAN       CLOUDY    42  36  79 NE7       30.11F
DUPAGE AIRPORT CLOUDY    44  37  76 NE8       30.09F
WHEELING       CLOUDY    42  37  82 NE7       30.12F
NORTHERLY ISL    N/A     42  39  89 NE8         N/A
NORTHERLY ISL    N/A     42  39  89 NE8         N/A
$$

LMZ740>746-300600-
SOUTHERN LAKE MICHIGAN

STATION/POSITION SKY/WX   TEMP    WIND        PRES    VSBY  WAVE
                          AIR SEA DIR/SP/G                  HT/PER
                          (F)     (DEG/KT/KT) (MB)    (MI)  (FT/S)
SOUTHERN BUOY              41 40   70/  8/ 10 1020.9          1/ 3
HARRISON CRIB              43      50/  9/  9   N/A
BURNHAM HARBOR             42      30/  7/ 10   N/A
CALUMET HARBOR             43      40/  7/  9 1019.5
BURNS HARBOR               44      60/  9/ 10 1020.3F
MICHIGAN CITY              45      10/  7/  7   N/A
ST. JOSEPH                 47 47                N/A           2/ 4
$$

ILZ025>027-034>036-040-047-049-050-058-095>099-300600-
WEST-CENTRAL ILLINOIS

CITY           SKY/WX    TMP DP  RH WIND       PRES   REMARKS
QUINCY         CLOUDY    52  46  80 E17G23    29.93F
MACOMB*        LGT RAIN  48  46  90 E14       30.03S
$$

ILZ028>032-037-038-041>044-048-051>054-059>061-300600-
CENTRAL ILLINOIS

CITY           SKY/WX    TMP DP  RH WIND       PRES   REMARKS
BLOOMINGTON    PTCLDY    47  45  93 E15       30.04F
DECATUR        CLOUDY    53  47  79 E13       29.99F
PEORIA         CLOUDY    49  43  80 E15       30.02F
SPRINGFIELD    CLOUDY    54  48  80 E13       29.97F
TAYLORVILLE    NOT AVBL
$$

ILZ033-039-045-046-055>057-062-063-300600-
EAST-CENTRAL ILLINOIS

CITY           SKY/WX    TMP DP  RH WIND       PRES   REMARKS
CHAMPAIGN      PTCLDY    51  46  83 NE17      30.01F HAZE
MATTOON        CLOUDY    55  48  77 E13       29.99F
$$

ILZ079-100>102-300600-
SOUTHWEST ILLINOIS

CITY           SKY/WX    TMP DP  RH WIND       PRES   REMARKS
ALTON          CLOUDY    58  54  86 E6        29.95F
BELLEVILLE     LGT RAIN  58  58  99 E13       29.91F
CAHOKIA*       CLOUDY    59  55  87 E12       29.92F
SPARTA*        CLOUDY    59  55  85 E13       29.93S
$$

ILZ064>066-069>071-074>076-080>082-084>086-088>090-092>094-300600-
SOUTH-CENTRAL ILLINOIS

CITY           SKY/WX    TMP DP  RH WIND       PRES   REMARKS
CARBONDALE     CLOUDY    59  54  83 E9        29.91F
MT. VERNON       N/A     57  52  82 NE8       29.95F
SALEM*         CLOUDY    62  53  71 SE3       29.96F
$$

ILZ067-068-072-073-078-083-087-091-300600-
SOUTHEAST ILLINOIS

CITY           SKY/WX    TMP DP  RH WIND       PRES   REMARKS
LAWRENCEVILLE  CLOUDY    61  53  75 E7        29.99S
FLORA*         CLOUDY    62  56  81 E5        29.98F
HARRISBURG*    CLOUDY    59  56  89 E8        29.94F
ROBINSON*      CLOUDY    59  51  73 NE6       29.99F
$$

ABBREVIATIONS USED IN REMARKS
   TC - TEMPERATURE IN CELSIUS
  WCI - WIND CHILL INDEX
   HX - HEAT INDEX
  VSB - VISIBILITY
$$




USA.gov is the U.S. government's official web portal to all federal, state and local government web resources and services.